TimeEET,TemperatureF,Dew PointF,Humidity,Sea Level PressureIn,VisibilityMPH,Wind Direction,Wind SpeedMPH,Gust SpeedMPH,PrecipitationIn,Events,Conditions,WindDirDegrees,DateUTC
12:00 AM,41.0,39.2,93,29.92,-9999.0,SW,4.5,-,N/A,,Clear,230,2013-11-07 22:00:00
12:30 AM,41.0,39.2,93,29.92,-9999.0,Variable,2.2,-,N/A,,Clear,0,2013-11-07 22:30:00
1:00 AM,41.0,39.2,93,29.92,6.2,SW,6.7,-,N/A,,Mostly Cloudy,220,2013-11-07 23:00:00
1:30 AM,41.0,39.2,93,29.92,6.2,Variable,2.2,-,N/A,,Mostly Cloudy,0,2013-11-07 23:30:00
2:00 AM,41.0,37.4,87,29.92,6.2,SW,4.5,-,N/A,,Mostly Cloudy,230,2013-11-08 00:00:00
2:30 AM,41.0,39.2,93,29.92,6.2,SW,4.5,-,N/A,,Mostly Cloudy,230,2013-11-08 00:30:00
3:00 AM,42.8,39.2,87,29.92,6.2,SW,6.7,-,N/A,,Mostly Cloudy,220,2013-11-08 01:00:00
3:30 AM,44.6,39.2,81,29.92,6.2,SW,6.7,-,N/A,,Mostly Cloudy,220,2013-11-08 01:30:00
4:00 AM,44.6,41.0,87,29.92,6.2,SW,6.7,-,N/A,,Mostly Cloudy,230,2013-11-08 02:00:00
4:30 AM,44.6,42.8,93,29.92,5.6,SW,6.7,-,N/A,Rain,Light Rain,230,2013-11-08 02:30:00
5:00 AM,44,42,89,29.94,2,SW,4.5,,,Rain,Light Rain,220,2013-11-08 03:00:00
5:00 AM,44.6,42.8,93,29.92,1.7,SW,6.7,-,N/A,Rain,Light Rain,230,2013-11-08 03:00:00
5:18 AM,44.6,44.6,100,29.92,-9999.0,SW,4.5,-,N/A,Rain,Light Rain,230,2013-11-08 03:18:00
5:30 AM,44.6,44.6,100,29.92,1.3,WSW,4.5,-,N/A,Rain,Light Rain,240,2013-11-08 03:30:00
6:00 AM,44.6,44.6,100,29.92,-9999.0,WSW,6.7,-,N/A,Rain,Light Rain,240,2013-11-08 04:00:00
6:30 AM,44.6,44.6,100,29.92,-9999.0,WSW,6.7,-,N/A,,Overcast,240,2013-11-08 04:30:00
7:00 AM,46.4,46.4,100,29.95,-9999.0,WSW,6.7,-,N/A,,Overcast,240,2013-11-08 05:00:00
7:30 AM,46.4,46.4,100,29.95,3.1,WSW,6.7,-,N/A,,Overcast,240,2013-11-08 05:30:00
8:00 AM,47,46,92,29.99,6,West,6.7,,,,Partly Cloudy,270,2013-11-08 06:00:00
8:00 AM,48.2,46.4,93,29.95,4.3,WSW,6.7,-,N/A,,Mostly Cloudy,240,2013-11-08 06:00:00
8:30 AM,48.2,48.2,100,29.98,5.0,WSW,6.7,-,N/A,,Mostly Cloudy,240,2013-11-08 06:30:00
9:00 AM,50.0,48.2,94,29.98,5.0,SW,8.9,-,N/A,,Mostly Cloudy,230,2013-11-08 07:00:00
9:30 AM,50.0,48.2,94,29.98,3.7,WSW,8.9,-,N/A,,Light Drizzle,240,2013-11-08 07:30:00
9:57 AM,50.0,50.0,100,29.98,3.1,SW,8.9,-,N/A,Rain,Light Rain,230,2013-11-08 07:57:00
10:00 AM,51.8,50.0,94,29.98,3.7,WSW,8.9,-,N/A,Rain,Light Rain,240,2013-11-08 08:00:00
10:30 AM,51.8,50.0,94,29.98,5.6,WSW,11.2,-,N/A,,Mostly Cloudy,240,2013-11-08 08:30:00
11:00 AM,52,49,86,30.00,12,WSW,8.9,,,Rain,Light Rain,240,2013-11-08 09:00:00
11:00 AM,51.8,50.0,94,29.98,5.6,WSW,11.2,-,N/A,,Mostly Cloudy,250,2013-11-08 09:00:00
11:30 AM,53.6,50.0,88,29.98,6.2,WSW,8.9,-,N/A,,Mostly Cloudy,250,2013-11-08 09:30:00
12:00 PM,53.6,50.0,88,29.98,6.2,WSW,11.2,-,N/A,,Mostly Cloudy,240,2013-11-08 10:00:00
12:30 PM,53.6,50.0,88,29.98,6.2,WSW,11.2,-,N/A,,Mostly Cloudy,240,2013-11-08 10:30:00
1:00 PM,55.4,51.8,88,29.98,6.2,WSW,8.9,-,N/A,,Overcast,240,2013-11-08 11:00:00
1:30 PM,55.4,51.8,88,30.01,6.2,WSW,6.7,-,N/A,,Mostly Cloudy,240,2013-11-08 11:30:00
2:00 PM,55,50,76,30.01,12,WSW,6.7,,,,Partly Cloudy,250,2013-11-08 12:00:00
2:00 PM,55.4,51.8,88,30.01,6.2,WSW,6.7,-,N/A,Rain,Light Rain,240,2013-11-08 12:00:00
2:30 PM,55.4,51.8,88,30.01,6.2,SW,6.7,-,N/A,,Mostly Cloudy,230,2013-11-08 12:30:00
3:00 PM,55.4,51.8,88,30.01,6.2,SSW,4.5,-,N/A,,Mostly Cloudy,200,2013-11-08 13:00:00
3:30 PM,55.4,51.8,88,30.01,6.2,SSW,4.5,-,N/A,,Mostly Cloudy,200,2013-11-08 13:30:00
4:00 PM,55.4,51.8,88,30.01,-9999.0,SSW,4.5,-,N/A,,Clear,200,2013-11-08 14:00:00
4:30 PM,55.4,51.8,88,30.01,-9999.0,SSW,6.7,-,N/A,,Clear,200,2013-11-08 14:30:00
5:00 PM,55,50,77,30.03,12,SSW,2.2,,,,Overcast,200,2013-11-08 15:00:00
5:00 PM,55.4,50.0,82,30.01,-9999.0,SW,6.7,-,N/A,,Clear,220,2013-11-08 15:00:00
5:30 PM,55.4,50.0,82,30.01,-9999.0,SW,6.7,-,N/A,,Clear,220,2013-11-08 15:30:00
6:00 PM,53.6,50.0,88,30.01,-9999.0,SW,6.7,-,N/A,,Clear,220,2013-11-08 16:00:00
6:30 PM,53.6,48.2,82,30.04,-9999.0,SW,6.7,-,N/A,,Clear,220,2013-11-08 16:30:00
7:00 PM,53.6,48.2,82,30.04,-9999.0,SW,8.9,-,N/A,,Clear,220,2013-11-08 17:00:00
7:30 PM,53.6,48.2,82,30.04,-9999.0,SW,6.7,-,N/A,,Clear,230,2013-11-08 17:30:00
8:00 PM,54,47,70,30.04,12,SW,8.9,,,,Mostly Cloudy,220,2013-11-08 18:00:00
8:00 PM,53.6,48.2,82,30.04,-9999.0,SW,6.7,-,N/A,,Clear,220,2013-11-08 18:00:00
8:30 PM,53.6,48.2,82,30.04,-9999.0,SW,6.7,-,N/A,,Clear,230,2013-11-08 18:30:00
9:00 PM,53.6,48.2,82,30.04,-9999.0,SW,4.5,-,N/A,,Clear,230,2013-11-08 19:00:00
9:30 PM,51.8,48.2,88,30.04,-9999.0,SW,4.5,-,N/A,,Clear,220,2013-11-08 19:30:00
10:00 PM,51.8,48.2,88,30.04,-9999.0,WSW,4.5,-,N/A,,Clear,240,2013-11-08 20:00:00
10:30 PM,53.6,50.0,88,30.04,-9999.0,SW,6.7,-,N/A,,Clear,230,2013-11-08 20:30:00
11:00 PM,55,48,71,30.06,12,SW,8.9,,,,Mostly Cloudy,230,2013-11-08 21:00:00
11:00 PM,53.6,50.0,88,30.04,-9999.0,SW,8.9,-,N/A,,Clear,220,2013-11-08 21:00:00
11:30 PM,53.6,50.0,88,30.04,-9999.0,SW,8.9,-,N/A,,Clear,230,2013-11-08 21:30:00